Regional Weather Roundup
Issued by NWS Cleveland, OH

Home | Current Version | Previous Version | Graphics & Text | Print | Product List | Glossary On
Versions: 1 2 3 4 5 6 7 8 9 10 11 12 13 14 15 16 17 18 19 20 21 22 23 24 25 26 27 28 29 30 31 32 33 34 35 36 37 38 39 40 41 42 43 44 45 46 47 48 49 50
000
ASUS41 KCLE 251900
RWRCLE
OHIO REGIONAL WEATHER ROUNDUP
NATIONAL WEATHER SERVICE WILMINGTON, OH
300 PM EDT SUN JUL 25 2021

NOTE: "FAIR" INDICATES FEW OR NO CLOUDS BELOW 12,000 FEET WITH NO
SIGNIFICANT WEATHER AND/OR OBSTRUCTIONS TO VISIBILITY.

OHZ001>008-015>018-024>027-034-035-043-044-252000-
   NORTHWEST OHIO

CITY           SKY/WX    TMP DP  RH WIND       PRES   REMARKS
DEFIANCE       NOT AVBL
FINDLAY        FAIR      87  67  51 NW6       29.93S HX  90
TOLEDO EXPRESS FAIR      89  61  38 NW10      29.93R
TOLEDO EXEC    FAIR      89  64  43 W9        29.93S HX  90
LIMA           CLOUDY    85  72  65 S6        29.95S HX  91
$$

OHZ009>014-019>023-028>033-038-089-252000-
   NORTHEAST OHIO

CITY           SKY/WX    TMP DP  RH WIND       PRES   REMARKS
CLE-HOPKINS    FAIR      85  66  53 VRB6      29.91S
CLE-LAKEFRONT  FAIR      80  73  79 NW7       29.92S
CUY CO. ARPT   MOSUNNY   81  68  65 W8        29.93S
LORAIN-ELYRIA  FAIR      85  68  56 NW7       29.94S
ASHTABULA      FAIR      84  71  65 MISG      29.92F
AKRON-CANTON   FAIR      87  68  52 W9        29.94S HX  90
WOOSTER        NOT AVBL
MANSFIELD      FAIR      86  68  54 W5        29.97S
YOUNGSTOWN     PTSUNNY   84  68  58 W5        29.94F
$$

OHZ042-051>053-060>062-070>072-077>081-252000-
  SOUTHWEST OHIO

CITY           SKY/WX    TMP DP  RH WIND       PRES   REMARKS
CINC-COVINGTON PTSUNNY   86  71  60 W8        29.96S HX  91
CINC-LUNKEN    FAIR      90  75  61 W8        29.94S HX 100
HAMILTON       FAIR      88  76  67 VRB6      29.95S HX  99
DAYTON         NOT AVBL
WRIGHT-PAT AFB PTSUNNY   86  69  56 CALM      29.95S HX  90
DAYTON GENERAL NOT AVBL
WILMINGTON     PTSUNNY   84  74  71 CALM      29.96S HX  91
$$

OHZ036-037-039>041-045>050-054>059-063>069-073>076-082>088-252000-
  CENTRAL AND SOUTHEAST OHIO

CITY           SKY/WX    TMP DP  RH WIND       PRES   REMARKS
COLUMBUS       FAIR      87  69  54 VRB6      29.94S HX  91
OSU AIRPORT    FAIR      87  68  52 VRB3      29.95S HX  90
BOLTON FIELD   PTSUNNY   84  72  65 W12       29.96S
RICKENBACK AFB NOT AVBL
NEWARK         FAIR      88  68  51 VRB5      29.94F HX  91
MARION         NOT AVBL
LANCASTER      PTSUNNY   85  71  63 CALM      29.96S HX  90
ZANESVILLE     FAIR      84  71  65 S6        29.95S
NEW PHILLY     PTSUNNY   87  73  62 VRB5      29.94S HX  94
$$



USA.gov is the U.S. government's official web portal to all federal, state and local government web resources and services.